Aeroporto :
LOGIN :

Iscrizione | Disclaimer

   EN    FR    IT 

 










Sommario :    VFR   VFR Marginale   IFR   IFR Intensivo   IFR Molto Intensivo
Visibilità : 
Base nubi : 
>= 8 km
>= 3000ft
5 / 8 km
1000 / 3000 ft
1500m / 5 km
500 / 1000 ft
800 / 1500m
200 / 500 ft
< 800m
< 200 ft
Simboli :   Temporali  Nebbia  Neve Forte  Precipitazioni Forti  Vento > 20 kt
SIGMETs :   Varie  Temporali  Ghiacco  Turbolenza  Onda orograficha  Ceneri Vulcaniche







- Altitudine del aeroporto : 640 ft
- Codice IATA : AOC


EDAC - Altenburg-Nobitz

ULTIMO METAR :
  • 191450Z VRB07KT CAVOK 26/11 Q1016

METARs OBSOLETI :
  • 191420Z 32007KT 280V010 CAVOK 26/11 Q1017
  • 191350Z 33006KT 280V020 CAVOK 26/11 Q1017
  • 191320Z 31006KT 270V040 CAVOK 26/12 Q1017
  • 191250Z 34006KT 260V050 CAVOK 25/11 Q1017
  • 191220Z 34005KT 280V030 CAVOK 25/11 Q1017

TAF TAF EDAC
Valido dal 19 a 15 ore il 20 a 00 ore UTC


191400Z 1915/1924 35007KT CAVOK
BECMG 1917/1920 VRB02KT
Nessun NOTAM noto per questo aeroporto.



MetMap, La meteo Aeronautica in un colpo d'occhio ! - Copyright ORBIFLY Dicembre 2007 - Disclaimer

ORBIFLY MET'MAP TEAM :

Programmazione e sviluppo : Alexandra Zaïnal
Concezione e sviluppo : Baudouin d'Aumeries
Co-Programmazione e sviluppo : Marc-Olivier Méhu
Supporto tecnico e logistico : Manuel Goepfert
Aiuto per la traduzione : Arnaldo La Scala

Contatto : metmap@orbifly.com




FONTI E CREDITI :

   NOAA